Orbital Elements at Epoch 2459000.5 (2020-May-31.0) TDB
Reference: JPL 32 (heliocentric ecliptic J2000)
Element | Value | Uncertainty (1-sigma) | Units |
e | .1832256869044368 | 1.0906e-05 | |
a | 39.29023537036414 | 0.00068915 | au |
q | 32.09125500599217 | 0.00095681 | au |
i | 13.59135812503161 | 4.1739e-05 | deg |
node | 252.173597297057 | 0.00020858 | deg |
peri | 15.90645167056302 | 0.0038188 | deg |
M | 233.3898733523203 | 0.0045551 | deg |
tp | 2490637.210109538119 (2107-Jan-12.71010954) | 0.74391 | TDB |
period | 89955.01340210091 246.28 | 2.3667 0.00648 | d yr |
n | .004002000404255314 | 1.0529e-07 | deg/d |
Q | 46.48921573473611 | 0.00081543 | au |
|
| | Orbit Determination Parameters
Additional Information
|